星链-33890 (STARLINK-33890)

导读

STARLINK-33890是美国太空探索技术公司Starlink卫星星座中的一员,于2025年8月27日发射升空,属于低轨互联网通信卫星。该卫星承担着为全球提供高速宽带互联网服务的任务,尤其覆盖偏远与网络基础设施薄弱区域,进一步扩充了星链星座的通信覆盖范围与服务容量。

基本信息
目录编号:
65332
目录名称:
STARLINK-33890
国际标识:
2025-189K
轨道中心:
EARTH
卫星名称:
星链-33890
卫星全名:
星链-33890 (STARLINK-33890)
卫星状态:
在轨 (已飞行290 天)
发射日期:
2025-08-27 UTC
国别 :
美国 (US)
星等 :
--
轨道信息
数据来源 国际轨道数据
星历时间: 2026-06-13T12:09:32+0800
15小时前
查看轨道信息
半长轴: 6848.834km
偏心率: 0.0001287
轨道倾角: 53.157°
近地点辐角 83.862°
升交点赤经 122.665°
平近点角 276.253°
近地点: 469.815km
远地点: 471.579km
周期: 94.012分钟
每日圈数: 15.317147
详细信息
固有亮度:
5
最大亮度:
2.5
卫星平台:
Starlink V1.0
覆盖范围:
全球
运营商:
太空探索技术公司
运营商所在国:
美国
制造商(研发单位):
太空探索技术公司
制造商所在国:
美国
使用方式:
暂无
卫星简介
Starlink 计划是 SpaceX 推出的全球卫星互联网项目,通过发射低轨道卫星,为全球尤其是偏远地区提供高速、低延迟的互联网服务。自 2019 年起,Starlink 已部署数千颗卫星,旨在缩小全球数字鸿沟,推动互联网普及。该项目还为军事、航空等行业提供通信支持,带来广泛经济效益。
2D轨道图
3D轨道图
轨道高度分析图
轨道倾角分析图
轨道综合分析图
查看轨道综合分析图